Location: Byszew
(52.1813°N, 19.2693°E)
Time: 11:25:51
(UTC+00:00)

CAS-4B - Pass Details

Date: 06 July 2022
Orbit: 522 x 536 km, 43.0° (Epoch: 07 August)

Event Time Altitude Azimuth Distance (km) Brightness Sun altitude
Exits shadow 00:10:00 20° 178° (S) 1,260 ? -13.0°
Maximum altitude 00:10:24 20° 169° (S) 1,249 ? -13.0°
Drops below altitude 10° 00:13:22 10° 122° (ESE) 1,759 ? -12.8°
Sets 00:16:02 0° 105° (ESE) 2,650 ? -12.7°
